Location: Bastelaar
(51.0950°N, 3.8602°E)
Time: 10:35:49
(UTC+00:00)

ARIANE 6 FM1 Upper Stage - Pass Details

Date: 31 January 2026
Orbit: 522 x 609 km, 62.0° (Epoch: 11 February)

Event Time Altitude Azimuth Distance (km) Brightness Sun altitude
Rises 17:32:51 0° 248° (WSW) 2,698 8.4 -9.5°
Reaches altitude 10° 17:35:10 10° 255° (WSW) 1,796 6.9 -9.8°
Maximum altitude 17:39:00 41° 327° (NNW) 781 3.5 -10.4°
Enters shadow 17:42:45 10° 39° (NE) 1,761 4.7 -11.0°
